timestamp,wind_dir_avg,wind_spd_max_dir,wind_spd_avg,wind_spd_gust,battery_voltage,lat,long
2017-09-06 00:00:00+00:00,229.0,226.0,11.99,13.54,12.7,47.59359,-54.27349
2017-09-06 00:10:00+00:00,227.0,229.0,11.96,13.73,12.6,47.59359,-54.27349
2017-09-06 00:20:00+00:00,232.0,233.0,10.74,12.7,12.7,47.59359,-54.27349
2017-09-06 00:30:00+00:00,228.0,231.0,11.78,13.8,12.7,47.59359,-54.27349
2017-09-06 00:40:00+00:00,227.0,229.0,11.73,13.15,12.7,47.59359,-54.27349
2017-09-06 00:50:00+00:00,228.0,231.0,11.35,12.69,12.7,47.59359,-54.27349
2017-09-06 01:00:00+00:00,226.0,229.0,11.29,12.68,12.6,47.59359,-54.27349
2017-09-06 01:10:00+00:00,225.0,220.0,9.53,11.36,12.6,47.59359,-54.27349
2017-09-06 01:20:00+00:00,219.0,217.0,9.86,11.04,12.6,47.59359,-54.27349
2017-09-06 01:30:00+00:00,219.0,220.0,9.96,11.19,12.7,47.59359,-54.27349
2017-09-06 01:40:00+00:00,219.0,218.0,10.06,11.59,12.7,47.59359,-54.27349
2017-09-06 01:50:00+00:00,219.0,222.0,10.1,11.41,12.7,47.59359,-54.27349
2017-09-06 02:00:00+00:00,219.0,223.0,10.4,11.82,12.6,47.59359,-54.27349
2017-09-06 02:10:00+00:00,218.0,218.0,9.96,11.25,12.6,47.59359,-54.27349
2017-09-06 02:20:00+00:00,218.0,218.0,10.58,11.97,12.6,47.59359,-54.27349
2017-09-06 02:30:00+00:00,224.0,223.0,10.6,12.6,12.6,47.59359,-54.27349
2017-09-06 02:40:00+00:00,225.0,229.0,10.38,11.55,12.6,47.59359,-54.27349
2017-09-06 02:50:00+00:00,227.0,229.0,10.11,11.64,12.7,47.59359,-54.27349
2017-09-06 03:00:00+00:00,227.0,225.0,10.26,11.5,12.6,47.59359,-54.27349
2017-09-06 03:10:00+00:00,222.0,225.0,10.2,11.4,12.6,47.59359,-54.27349
2017-09-06 03:20:00+00:00,224.0,229.0,9.63,11.17,12.6,47.59359,-54.27349
2017-09-06 03:30:00+00:00,226.0,226.0,10.09,11.53,12.6,47.59359,-54.27349
2017-09-06 03:40:00+00:00,226.0,222.0,10.03,11.58,12.6,47.59359,-54.27349
2017-09-06 03:50:00+00:00,224.0,222.0,10.11,11.85,12.6,47.59359,-54.27349
2017-09-06 04:00:00+00:00,229.0,229.0,8.41,9.98,12.6,47.59359,-54.27349
2017-09-06 04:10:00+00:00,228.0,234.0,8.61,10.35,12.6,47.59359,-54.27349
2017-09-06 04:20:00+00:00,226.0,232.0,8.88,10.19,12.6,47.59359,-54.27349
2017-09-06 04:30:00+00:00,225.0,227.0,9.54,10.59,12.6,47.59359,-54.27349
2017-09-06 04:40:00+00:00,230.0,233.0,9.24,10.49,12.6,47.59359,-54.27349
2017-09-06 04:50:00+00:00,227.0,232.0,9.06,10.15,12.6,47.59359,-54.27349
2017-09-06 05:00:00+00:00,225.0,227.0,9.48,10.47,12.6,47.59359,-54.27349
2017-09-06 05:10:00+00:00,229.0,228.0,9.61,11.29,12.6,47.59359,-54.27349
2017-09-06 05:20:00+00:00,230.0,233.0,9.8,11.43,12.6,47.59359,-54.27349
2017-09-06 05:30:00+00:00,231.0,231.0,9.85,11.26,12.6,47.59359,-54.27349
2017-09-06 05:40:00+00:00,230.0,232.0,9.99,11.38,12.6,47.59359,-54.27349
2017-09-06 05:50:00+00:00,227.0,230.0,9.28,10.68,12.6,47.59359,-54.27349
2017-09-06 06:00:00+00:00,226.0,225.0,9.99,11.47,12.6,47.59359,-54.27349
2017-09-06 06:10:00+00:00,232.0,233.0,8.44,9.45,12.6,47.59359,-54.27349
2017-09-06 06:20:00+00:00,234.0,233.0,7.86,8.8,12.6,47.59359,-54.27349
2017-09-06 06:30:00+00:00,232.0,231.0,6.88,7.62,12.6,47.59359,-54.27349
2017-09-06 06:40:00+00:00,225.0,223.0,7.22,7.81,12.6,47.59359,-54.27349
2017-09-06 06:50:00+00:00,229.0,232.0,7.4,8.51,12.6,47.59359,-54.27349
2017-09-06 07:00:00+00:00,228.0,223.0,6.91,8.13,12.6,47.59359,-54.27349
2017-09-06 07:10:00+00:00,223.0,218.0,6.87,7.79,12.6,47.59359,-54.27349
2017-09-06 07:20:00+00:00,225.0,228.0,6.97,7.83,12.6,47.59359,-54.27349
2017-09-06 07:30:00+00:00,228.0,235.0,6.71,7.69,12.6,47.59359,-54.27349
2017-09-06 07:40:00+00:00,228.0,228.0,7.41,8.09,12.6,47.59359,-54.27349
2017-09-06 07:50:00+00:00,227.0,226.0,8.34,9.36,12.6,47.59359,-54.27349
2017-09-06 08:00:00+00:00,231.0,231.0,8.0,9.05,12.6,47.59359,-54.27349
2017-09-06 08:10:00+00:00,234.0,238.0,8.28,10.42,12.6,47.59359,-54.27349
2017-09-06 08:20:00+00:00,232.0,233.0,8.91,10.48,12.6,47.59359,-54.27349
2017-09-06 08:30:00+00:00,231.0,230.0,9.08,10.48,12.6,47.59359,-54.27349
2017-09-06 08:40:00+00:00,230.0,231.0,9.3,10.76,12.6,47.59359,-54.27349
2017-09-06 08:50:00+00:00,230.0,237.0,9.67,12.05,12.6,47.59359,-54.27349
2017-09-06 09:00:00+00:00,230.0,230.0,10.64,12.07,12.6,47.59359,-54.27349
2017-09-06 09:10:00+00:00,230.0,231.0,9.62,10.9,12.6,47.59359,-54.27349
2017-09-06 09:20:00+00:00,232.0,235.0,9.39,10.37,12.6,47.59359,-54.27349
2017-09-06 09:30:00+00:00,231.0,233.0,9.03,10.6,12.6,47.59359,-54.27349
2017-09-06 09:40:00+00:00,230.0,234.0,9.71,10.9,12.6,47.59359,-54.27349
2017-09-06 09:50:00+00:00,231.0,232.0,8.46,9.93,12.6,47.59359,-54.27349
2017-09-06 10:00:00+00:00,231.0,233.0,8.11,9.59,12.6,47.59359,-54.27349
2017-09-06 10:10:00+00:00,230.0,229.0,8.15,8.92,12.6,47.59359,-54.27349
2017-09-06 10:20:00+00:00,232.0,232.0,8.55,9.8,12.7,47.59359,-54.27349
2017-09-06 10:30:00+00:00,230.0,232.0,8.06,9.34,12.8,47.59359,-54.27349
2017-09-06 10:40:00+00:00,231.0,235.0,8.22,9.38,12.9,47.59359,-54.27349
2017-09-06 10:50:00+00:00,230.0,230.0,8.19,9.73,13.0,47.59359,-54.27349
2017-09-06 11:00:00+00:00,232.0,233.0,8.47,9.34,13.0,47.59359,-54.27349
2017-09-06 11:10:00+00:00,232.0,236.0,8.93,10.15,13.0,47.59359,-54.27349
2017-09-06 11:20:00+00:00,230.0,240.0,8.05,9.73,13.2,47.59359,-54.27349
2017-09-06 11:30:00+00:00,227.0,224.0,8.99,10.03,13.3,47.59359,-54.27349
2017-09-06 11:40:00+00:00,227.0,234.0,8.94,10.44,13.4,47.59359,-54.27349
2017-09-06 11:50:00+00:00,225.0,223.0,9.37,10.68,13.4,47.59359,-54.27349
2017-09-06 12:00:00+00:00,226.0,227.0,8.99,9.94,13.4,47.59359,-54.27349
2017-09-06 12:10:00+00:00,224.0,222.0,9.03,10.19,13.3,47.59359,-54.27349
2017-09-06 12:20:00+00:00,224.0,219.0,8.59,10.69,13.5,47.59359,-54.27349
2017-09-06 12:30:00+00:00,226.0,223.0,8.57,9.59,13.6,47.59359,-54.27349
2017-09-06 12:40:00+00:00,223.0,224.0,8.35,9.28,13.7,47.59359,-54.27349
2017-09-06 12:50:00+00:00,223.0,222.0,8.58,9.44,13.8,47.59359,-54.27349
2017-09-06 13:00:00+00:00,222.0,217.0,8.57,9.44,13.8,47.59359,-54.27349
2017-09-06 13:10:00+00:00,222.0,222.0,8.14,8.84,13.7,47.59359,-54.27349
2017-09-06 13:20:00+00:00,220.0,217.0,9.16,10.11,13.8,47.59359,-54.27349
2017-09-06 13:30:00+00:00,221.0,221.0,8.7,9.54,14.0,47.59359,-54.27349
2017-09-06 13:40:00+00:00,221.0,222.0,8.93,10.07,13.7,47.59359,-54.27349
2017-09-06 13:50:00+00:00,219.0,225.0,9.12,10.23,13.7,47.59359,-54.27349
2017-09-06 14:00:00+00:00,218.0,215.0,8.9,10.12,14.1,47.59359,-54.27349
2017-09-06 14:10:00+00:00,217.0,210.0,9.49,12.43,13.8,47.59359,-54.27349
2017-09-06 14:20:00+00:00,218.0,217.0,10.38,12.01,13.7,47.59359,-54.27349
2017-09-06 14:30:00+00:00,217.0,218.0,9.77,11.16,13.9,47.59359,-54.27349
2017-09-06 14:40:00+00:00,217.0,221.0,9.65,10.87,13.8,47.59359,-54.27349
2017-09-06 14:50:00+00:00,218.0,219.0,9.13,10.38,13.6,47.59359,-54.27349
2017-09-06 15:00:00+00:00,217.0,217.0,8.78,9.96,13.7,47.59359,-54.27349
2017-09-06 15:10:00+00:00,217.0,226.0,9.59,11.01,14.1,47.59359,-54.27349
2017-09-06 15:20:00+00:00,218.0,210.0,8.8,10.55,13.8,47.59359,-54.27349
2017-09-06 15:30:00+00:00,218.0,218.0,9.46,10.74,13.7,47.59359,-54.27349
2017-09-06 15:40:00+00:00,216.0,216.0,9.6,11.02,14.3,47.59359,-54.27349
2017-09-06 15:50:00+00:00,219.0,221.0,9.56,10.38,13.7,47.59359,-54.27349
2017-09-06 16:00:00+00:00,223.0,225.0,9.99,11.42,13.8,47.59359,-54.27349
2017-09-06 16:10:00+00:00,220.0,222.0,9.94,11.22,13.9,47.59359,-54.27349
2017-09-06 16:20:00+00:00,220.0,216.0,9.75,10.86,13.8,47.59359,-54.27349
2017-09-06 16:30:00+00:00,220.0,220.0,9.71,11.04,13.8,47.59359,-54.27349
2017-09-06 16:40:00+00:00,221.0,220.0,10.44,11.56,13.6,47.59359,-54.27349
2017-09-06 16:50:00+00:00,221.0,216.0,10.01,11.21,13.6,47.59359,-54.27349
2017-09-06 17:00:00+00:00,221.0,224.0,10.12,11.73,13.8,47.59359,-54.27349
2017-09-06 17:10:00+00:00,222.0,223.0,10.83,12.42,13.7,47.59359,-54.27349
2017-09-06 17:20:00+00:00,224.0,225.0,11.1,12.19,13.7,47.59359,-54.27349
2017-09-06 17:30:00+00:00,225.0,225.0,10.75,11.63,13.7,47.59359,-54.27349
2017-09-06 17:40:00+00:00,226.0,225.0,10.37,11.65,13.7,47.59359,-54.27349
2017-09-06 17:50:00+00:00,226.0,228.0,10.63,12.61,13.7,47.59359,-54.27349
2017-09-06 18:00:00+00:00,224.0,228.0,10.67,11.89,13.7,47.59359,-54.27349
2017-09-06 18:10:00+00:00,224.0,222.0,11.51,12.71,13.8,47.59359,-54.27349
2017-09-06 18:20:00+00:00,224.0,219.0,11.16,12.36,13.7,47.59359,-54.27349
2017-09-06 18:30:00+00:00,224.0,224.0,11.54,12.51,14.2,47.59359,-54.27349
2017-09-06 18:40:00+00:00,224.0,224.0,11.66,13.31,14.0,47.59359,-54.27349
2017-09-06 18:50:00+00:00,222.0,220.0,11.58,13.03,14.0,47.59359,-54.27349
2017-09-06 19:00:00+00:00,219.0,223.0,10.99,11.96,13.7,47.59359,-54.27349
2017-09-06 19:10:00+00:00,219.0,227.0,10.53,11.52,14.2,47.59359,-54.27349
2017-09-06 19:20:00+00:00,216.0,217.0,9.68,10.81,14.2,47.59359,-54.27349
2017-09-06 19:30:00+00:00,216.0,214.0,9.65,10.59,14.2,47.59359,-54.27349
2017-09-06 19:40:00+00:00,218.0,219.0,9.89,10.78,14.1,47.59359,-54.27349
2017-09-06 19:50:00+00:00,219.0,219.0,10.38,11.37,14.0,47.59359,-54.27349
2017-09-06 20:00:00+00:00,219.0,224.0,9.83,11.52,13.9,47.59359,-54.27349
2017-09-06 20:10:00+00:00,219.0,222.0,9.1,10.99,13.8,47.59359,-54.27349
2017-09-06 20:20:00+00:00,218.0,221.0,8.59,9.62,13.8,47.59359,-54.27349
2017-09-06 20:30:00+00:00,216.0,218.0,7.91,8.9,13.8,47.59359,-54.27349
2017-09-06 20:40:00+00:00,214.0,217.0,7.86,8.73,13.8,47.59359,-54.27349
2017-09-06 20:50:00+00:00,214.0,216.0,8.4,9.32,13.8,47.59359,-54.27349
2017-09-06 21:00:00+00:00,220.0,221.0,7.94,8.69,13.7,47.59359,-54.27349
2017-09-06 21:10:00+00:00,222.0,225.0,9.21,9.95,13.4,47.59359,-54.27349
2017-09-06 21:20:00+00:00,223.0,221.0,9.3,10.34,13.5,47.59359,-54.27349
2017-09-06 21:30:00+00:00,222.0,222.0,8.56,9.27,13.4,47.59359,-54.27349
2017-09-06 21:40:00+00:00,219.0,219.0,7.8,8.61,13.4,47.59359,-54.27349
2017-09-06 21:50:00+00:00,222.0,220.0,6.7,7.86,13.4,47.59359,-54.27349
2017-09-06 22:00:00+00:00,215.0,210.0,6.43,7.13,13.3,47.59359,-54.27349
2017-09-06 22:10:00+00:00,209.0,212.0,6.76,7.46,13.0,47.59359,-54.27349
2017-09-06 22:20:00+00:00,212.0,220.0,7.1,7.99,13.0,47.59359,-54.27349
2017-09-06 22:30:00+00:00,215.0,215.0,7.33,7.89,13.0,47.59359,-54.27349
2017-09-06 22:40:00+00:00,219.0,214.0,7.54,9.57,13.0,47.59359,-54.27349
2017-09-06 22:50:00+00:00,223.0,220.0,8.78,9.9,12.9,47.59359,-54.27349
2017-09-06 23:00:00+00:00,223.0,220.0,8.95,10.17,12.8,47.59359,-54.27349
2017-09-06 23:10:00+00:00,224.0,228.0,8.28,9.09,12.7,47.59359,-54.27349
2017-09-06 23:20:00+00:00,224.0,221.0,6.68,7.47,12.7,47.59359,-54.27349
2017-09-06 23:30:00+00:00,228.0,234.0,6.59,7.13,12.7,47.59359,-54.27349
2017-09-06 23:40:00+00:00,232.0,236.0,5.05,5.7,12.7,47.59359,-54.27349
2017-09-06 23:50:00+00:00,223.0,223.0,5.06,5.49,12.7,47.59359,-54.27349
